KGRR-WX Weather Reports


time (UTC)temp
C
wind
direction
speed
KPH
gust
KPH
rain 1hr
cm
rain 24hr
cm
rain mn
cm
humidity
%
barometer
mb
20260906133004 16 58 9.7 0.0 0.00 0.00 0.00 88 990.5
20260906131505 15 56 9.7 0.0 0.00 0.00 0.00 88 990.5
20260906130004 15 55 11.3 0.0 0.00 0.00 0.00 88 990.5
20260906124504 14 53 9.7 0.0 0.00 0.00 0.00 94 990.3
20260906123006 13 50 8.0 0.0 0.00 0.00 0.00 94 990.3
20260906121504 12 51 6.4 0.0 0.00 0.00 0.00 94 990.3
20260906120005 12 53 6.4 0.0 0.00 0.00 0.00 94 990.3
20260906114505 11 55 6.4 0.0 0.00 0.00 0.00 92 988.8
20260906113004 11 43 6.4 0.0 0.00 0.00 0.00 92 990.1
20260906111504 11 55 6.4 0.0 0.00 0.00 0.00 92 990.2
20260906110005 12 55 6.4 0.0 0.00 0.00 0.00 92 990.2
20260906104505 12 43 6.4 0.0 0.00 0.00 0.00 90 989.3
20260906103008 12 40 4.8 0.0 0.00 0.00 0.00 90 990.1
20260906101504 12 50 4.8 0.0 0.00 0.00 0.00 90 990.1
20260906100006 12 52 4.8 0.0 0.00 0.00 0.00 90 990.1
20260906094507 12 43 4.8 0.0 0.00 0.00 0.00 89 989.4
20260906093007 12 31 4.8 0.0 0.00 0.00 0.00 89 990.1
20260906091504 12 40 4.8 0.0 0.00 0.00 0.00 89 990.1
20260906090005 12 47 6.4 0.0 0.00 0.00 0.00 89 990.1
20260906084507 13 43 4.8 0.0 0.00 0.00 0.00 89 989.3
20260906083005 13 36 4.8 0.0 0.00 0.00 0.00 87 989.6
20260906081507 13 57 6.4 0.0 0.00 0.00 0.00 83 989.5
20260906080005 13 57 6.4 0.0 0.00 0.00 0.00 83 989.5
20260906074505 14 62 6.4 0.0 0.00 0.00 0.00 80 988.5
20260906073004 14 60 6.4 0.0 0.00 0.00 0.00 80 988.5
20260906071507 14 61 6.4 0.0 0.00 0.00 0.00 80 988.5
20260906070007 15 61 6.4 0.0 0.00 0.00 0.00 80 988.5
20260906064517 15 61 6.4 0.0 0.00 0.00 0.00 77 988.2
20260906063007 15 60 6.4 0.0 0.00 0.00 0.00 74 988.6
20260906061505 15 60 6.4 0.0 0.00 0.00 0.00 74 988.6
20260906060007 15 66 6.4 0.0 0.00 0.00 0.00 74 988.6
20260906054506 15 70 6.4 0.0 0.00 0.00 0.00 72 988.5
20260906053006 15 65 6.4 0.0 0.00 0.00 0.00 69 988.2
20260906051506 16 67 6.4 0.0 0.00 0.00 0.00 69 988.2
20260906050006 16 65 6.4 0.0 0.00 0.00 0.00 69 988.2
20260906044506 16 66 8.0 0.0 0.00 0.00 0.00 73 988.3
20260906043007 16 62 8.0 0.0 0.00 0.00 0.00 75 988.2
20260906041505 17 59 8.0 0.0 0.00 0.00 0.00 75 988.2
20260906040005 17 59 8.0 0.0 0.00 0.00 0.00 75 988.2
20260906034505 17 59 9.7 0.0 0.00 0.00 0.00 72 988.1
20260906033006 17 60 8.0 0.0 0.00 0.00 0.00 74 988.5
20260906031505 17 60 11.3 0.0 0.00 0.00 0.00 74 988.5
20260906030005 18 59 11.3 0.0 0.00 0.00 0.00 74 988.5
20260906024505 18 57 9.7 0.0 0.00 0.00 0.00 79 987.0
20260906023005 18 59 9.7 0.0 0.00 0.00 0.00 75 987.5
20260906021505 18 61 9.7 0.0 0.00 0.00 0.00 75 987.5
20260906020005 19 62 9.7 0.0 0.00 0.00 0.00 75 987.5
20260906014505 19 57 9.7 0.0 0.00 0.00 0.00 70 986.8
20260906013005 20 60 9.7 0.0 0.00 0.00 0.00 70 986.8
20260906011504 20 62 11.3 0.0 0.00 0.00 0.00 70 986.8
20260906010006 20 59 11.3 0.0 0.00 0.00 0.00 70 986.8
20260906004504 20 62 9.7 0.0 0.00 0.00 0.00 70 986.9
20260906003005 20 54 9.7 0.0 0.00 0.00 0.00 68 986.9
20260906001504 20 38 8.0 0.0 0.00 0.00 0.00 68 986.9
20260906000008 21 31 8.0 0.0 0.00 0.00 0.00 68 986.9
20260905234507 22 23 8.0 0.0 0.00 0.05 0.05 62 986.8
20260905233004 22 34 8.0 0.0 0.00 0.05 0.05 62 986.8
20260905231507 22 35 9.7 0.0 0.00 0.05 0.05 62 986.8
20260905230008 23 36 11.3 0.0 0.00 0.05 0.05 62 986.8
20260905224507 23 39 11.3 0.0 0.00 0.05 0.05 62 986.4
20260905223007 24 53 11.3 0.0 0.00 0.05 0.05 61 987.0
20260905221507 24 59 11.3 0.0 0.00 0.05 0.05 61 987.0
20260905220007 25 61 12.9 0.0 0.00 0.05 0.05 61 987.0
20260905214507 25 58 12.9 0.0 0.00 0.05 0.05 70 986.7
20260905213007 25 55 11.3 0.0 0.00 0.05 0.05 71 987.1
20260905211507 24 57 12.9 0.0 0.00 0.05 0.05 71 987.1
20260905210007 24 58 11.3 0.0 0.00 0.05 0.05 71 987.1
20260905204507 23 54 11.3 0.0 0.00 0.05 0.05 76 986.3
20260905203007 23 55 12.9 0.0 0.00 0.05 0.05 77 986.7
20260905201507 23 63 9.7 0.0 0.00 0.05 0.05 77 986.7
20260905200006 23 65 8.0 0.0 0.00 0.05 0.05 77 986.7
20260905194507 22 66 4.8 0.0 0.00 0.05 0.05 73 986.6
20260905193007 22 67 3.2 0.0 0.00 0.05 0.05 73 986.6
20260905191507 25 69 8.0 0.0 0.00 0.05 0.05 73 986.8
20260905190008 23 82 4.8 0.0 0.00 0.05 0.05 73 986.8
20260905184507 23 98 1.6 0.0 0.00 0.05 0.05 89 987.3
20260905183007 23 70 9.7 0.0 0.00 0.05 0.05 78 987.5
20260905181506 23 80 8.0 0.0 0.00 0.05 0.05 78 987.5
20260905180008 23 87 6.4 0.0 0.00 0.05 0.05 78 987.5
20260905174507 22 93 6.4 0.0 0.05 0.05 0.05 89 987.5
20260905173008 21 99 6.4 0.0 0.05 0.05 0.05 71 986.8
20260905171507 23 86 9.7 0.0 0.00 0.00 0.00 71 987.1
20260905170009 23 82 9.7 0.0 0.00 0.00 0.00 71 987.1
20260905164507 23 75 9.7 0.0 0.00 0.00 0.00 83 987.5
20260905163008 22 69 11.3 0.0 0.00 0.00 0.00 77 986.4
20260905161505 22 75 11.3 0.0 0.00 0.00 0.00 77 986.4
20260905160007 22 79 11.3 0.0 0.00 0.00 0.00 77 986.4
20260905154507 22 85 11.3 0.0 0.00 0.00 0.00 82 987.8
20260905153007 21 85 11.3 0.0 0.00 0.00 0.00 87 986.5
20260905151507 20 73 11.3 0.0 0.00 0.00 0.00 87 986.4
20260905150007 20 69 9.7 0.0 0.00 0.00 0.00 87 986.4
20260905144516 20 69 9.7 0.0 0.00 0.00 0.00 88 987.1
20260905143004 20 65 9.7 0.0 0.00 0.00 0.00 88 986.6
20260905141507 20 72 11.3 0.0 0.00 0.00 0.00 88 986.5
20260905140008 20 61 11.3 0.0 0.00 0.00 0.00 88 986.5
20260905134507 20 57 9.7 0.0 0.00 0.00 0.00 94 985.7